N1BFO Weather Reports


Display with metric or nautical units.
time (UTC)temp
F
wind
direction
speed
MPH
gust
MPH
rain 1hr
in
rain 24hr
in
rain mn
in
humidity
%
barometer
mb
20260906115523 60 3 0.0 4.0 0.00 0.29 0.28 95 1015.2
20260906115026 60 6 1.0 4.0 0.00 0.29 0.28 94 1015.1
20260906114546 60 0 0.0 2.0 0.00 0.29 0.28 96 1015.2
20260906114025 60 0 0.0 2.0 0.00 0.29 0.28 96 1015.1
20260906113525 59 18 0.0 2.0 0.01 0.29 0.28 96 1015.0
20260906113045 59 0 0.0 1.0 0.01 0.29 0.28 96 1015.0
20260906112524 58 18 0.0 2.0 0.01 0.29 0.28 96 1014.9
20260906112024 58 0 0.0 2.0 0.01 0.29 0.28 96 1014.9
20260906111545 58 356 0.0 2.0 0.01 0.29 0.28 96 1014.8
20260906111023 58 0 0.0 2.0 0.01 0.29 0.28 96 1014.7
20260906110523 58 0 0.0 2.0 0.01 0.29 0.28 96 1014.5
20260906110048 58 331 0.0 1.0 0.01 0.29 0.28 96 1014.5
20260906105526 58 330 0.0 1.0 0.01 0.29 0.28 96 1014.5
20260906105026 57 0 0.0 0.0 0.01 0.29 0.28 96 1014.5
20260906104548 57 0 0.0 1.0 0.01 0.29 0.28 96 1014.5
20260906104027 57 0 0.0 1.0 0.01 0.29 0.28 96 1014.4
20260906103527 58 0 0.0 1.0 0.00 0.28 0.27 96 1014.4
20260906103046 58 0 0.0 0.0 0.00 0.28 0.27 96 1014.3
20260906102524 58 0 0.0 0.0 0.00 0.28 0.27 96 1014.3
20260906102024 58 0 0.0 0.0 0.00 0.28 0.27 96 1014.2
20260906101545 58 0 0.0 2.0 0.00 0.28 0.27 96 1014.1
20260906101024 58 0 0.0 2.0 0.00 0.28 0.27 96 1014.1
20260906100527 58 0 0.0 0.0 0.00 0.28 0.27 96 1014.2
20260906100050 58 0 0.0 0.0 0.01 0.28 0.27 96 1014.1
20260906095527 58 0 0.0 0.0 0.01 0.28 0.27 96 1014.0
20260906095026 58 0 0.0 0.0 0.01 0.28 0.27 96 1013.9
20260906094548 58 0 0.0 0.0 0.03 0.28 0.27 96 1013.9
20260906094029 58 0 0.0 0.0 0.05 0.28 0.27 96 1013.9
20260906093524 58 0 0.0 0.0 0.06 0.28 0.27 95 1013.9
20260906093053 58 0 0.0 0.0 0.06 0.28 0.27 95 1013.8
20260906092526 58 0 0.0 0.0 0.07 0.28 0.27 95 1013.9
20260906092024 58 0 0.0 0.0 0.08 0.28 0.27 95 1013.9
20260906091548 58 0 0.0 0.0 0.08 0.28 0.27 95 1013.8
20260906091027 58 0 0.0 0.0 0.08 0.28 0.27 95 1013.8
20260906090527 58 0 0.0 0.0 0.08 0.28 0.27 95 1013.8
20260906090049 58 0 0.0 0.0 0.07 0.27 0.26 95 1013.8
20260906085526 58 0 0.0 0.0 0.07 0.27 0.26 95 1013.6
20260906085025 58 0 0.0 0.0 0.07 0.27 0.26 95 1013.8
20260906084552 58 0 0.0 0.0 0.06 0.25 0.24 95 1013.7
20260906084026 58 0 0.0 1.0 0.04 0.23 0.22 95 1013.7
20260906083524 59 0 0.0 1.0 0.03 0.22 0.21 95 1013.6
20260906083052 59 0 0.0 1.0 0.03 0.22 0.21 95 1013.8
20260906082526 59 0 0.0 1.0 0.02 0.21 0.20 95 1013.7
20260906082028 59 0 0.0 1.0 0.02 0.20 0.19 95 1013.7
20260906081548 59 0 0.0 0.0 0.05 0.20 0.19 95 1013.6
20260906081025 59 0 0.0 1.0 0.05 0.20 0.19 95 1013.5
20260906080526 59 0 0.0 1.0 0.06 0.20 0.19 95 1013.4
20260906080054 59 0 0.0 1.0 0.06 0.20 0.19 95 1013.3
20260906075525 60 0 0.0 1.0 0.07 0.20 0.19 95 1013.2
20260906075026 60 168 0.0 2.0 0.08 0.20 0.19 96 1013.1
20260906074548 60 0 0.0 2.0 0.08 0.19 0.18 96 1013.1
20260906074024 60 0 0.0 2.0 0.09 0.19 0.18 96 1013.0
20260906073524 60 0 0.0 0.0 0.11 0.19 0.18 96 1013.0
20260906073040 60 0 0.0 1.0 0.14 0.19 0.18 96 1013.0
20260906072526 60 0 0.0 1.0 0.14 0.19 0.18 96 1013.0
20260906072031 60 65 0.0 1.0 0.13 0.17 0.16 95 1013.1
20260906071546 60 55 0.0 2.0 0.12 0.15 0.14 95 1013.0
20260906071025 60 0 0.0 2.0 0.12 0.15 0.14 95 1012.9
20260906070527 60 9 0.0 2.0 0.12 0.14 0.13 95 1013.0
20260906070055 60 0 0.0 0.0 0.12 0.14 0.13 95 1013.0
20260906065524 60 0 0.0 0.0 0.11 0.13 0.12 95 1013.1
20260906065024 60 0 0.0 2.0 0.10 0.12 0.11 95 1013.1
20260906064548 60 0 0.0 2.0 0.09 0.11 0.10 95 1013.1
20260906064028 60 0 0.0 2.0 0.08 0.10 0.09 95 1013.0
20260906063528 60 0 0.0 2.0 0.06 0.08 0.07 95 1013.1
20260906063049 60 0 0.0 2.0 0.03 0.05 0.04 95 1013.0
20260906062531 60 6 0.0 1.0 0.03 0.05 0.04 95 1013.0
20260906062026 60 0 0.0 2.0 0.02 0.04 0.03 95 1013.0
20260906061547 60 0 0.0 3.0 0.01 0.03 0.02 95 1013.0
20260906061025 60 8 0.0 3.0 0.01 0.03 0.02 95 1013.0
20260906060526 60 1 0.0 2.0 0.00 0.02 0.01 95 1013.1
20260906060056 60 360 0.0 2.0 0.00 0.02 0.01 95 1013.1
20260906055528 60 0 0.0 2.0 0.00 0.02 0.01 95 1013.1
20260906055028 60 359 0.0 1.0 0.00 0.02 0.01 95 1013.1
20260906054549 60 2 0.0 1.0 0.00 0.02 0.01 95 1013.1
20260906054027 60 0 0.0 0.0 0.00 0.02 0.01 95 1012.9
20260906053526 60 0 0.0 0.0 0.00 0.02 0.01 95 1012.9
20260906053045 60 0 0.0 1.0 0.00 0.02 0.01 95 1013.0
20260906052528 60 0 0.0 1.0 0.00 0.02 0.01 95 1013.0
20260906052025 60 0 0.0 1.0 0.00 0.02 0.01 95 1013.0
20260906051553 60 0 0.0 0.0 0.00 0.02 0.01 95 1013.1
20260906051025 60 0 0.0 0.0 0.01 0.02 0.01 95 1013.1
20260906050528 61 0 0.0 1.0 0.01 0.02 0.01 95 1013.1
20260906050055 61 0 0.0 1.0 0.01 0.02 0.01 95 1013.2
20260906045523 61 0 0.0 1.0 0.01 0.02 0.01 95 1013.3
20260906045027 61 0 0.0 1.0 0.01 0.02 0.01 95 1013.3
20260906044549 61 0 0.0 1.0 0.01 0.02 0.01 95 1013.2
20260906044027 61 3 0.0 1.0 0.01 0.02 0.01 95 1013.2
20260906043527 61 0 0.0 2.0 0.01 0.02 0.01 94 1013.2
20260906043047 61 347 1.0 2.0 0.02 0.02 0.01 94 1013.2
20260906042527 61 0 0.0 2.0 0.02 0.02 0.01 94 1013.1
20260906042025 61 6 0.0 2.0 0.02 0.02 0.01 94 1013.1
20260906041553 61 0 0.0 2.0 0.02 0.02 0.01 94 1013.1
20260906041025 61 0 0.0 2.0 0.01 0.01 0.00 94 1013.1
20260906040527 61 0 0.0 2.0 0.01 0.01 0.00 94 1013.1
20260906040051 61 6 0.0 2.0 0.01 0.01 0.00 94 1013.1
20260906035524 61 6 0.0 2.0 0.01 0.01 0.01 94 1013.0
20260906035025 61 0 0.0 1.0 0.01 0.01 0.01 94 1013.0
20260906034546 61 0 0.0 1.0 0.01 0.01 0.01 94 1013.0
20260906034024 61 0 0.0 1.0 0.01 0.01 0.01 94 1013.0
20260906033524 61 0 0.0 1.0 0.01 0.01 0.01 94 1012.9
20260906033045 61 2 0.0 2.0 0.00 0.00 0.00 94 1012.9
20260906032527 62 0 0.0 2.0 0.00 0.00 0.00 94 1012.8
20260906032024 62 0 0.0 2.0 0.00 0.00 0.00 94 1012.9
20260906031555 62 0 0.0 2.0 0.00 0.00 0.00 94 1012.8
20260906031028 62 1 0.0 1.0 0.00 0.00 0.00 94 1012.8
20260906030526 62 359 0.0 1.0 0.00 0.00 0.00 94 1012.9
20260906030052 62 2 0.0 1.0 0.00 0.00 0.00 94 1012.9
20260906025527 62 0 0.0 1.0 0.00 0.00 0.00 93 1012.8
20260906025025 62 8 0.0 1.0 0.00 0.00 0.00 93 1012.7
20260906024544 62 0 0.0 1.0 0.00 0.00 0.00 93 1012.8
20260906024025 62 0 0.0 1.0 0.00 0.00 0.00 93 1012.8
20260906023525 62 0 0.0 0.0 0.00 0.00 0.00 92 1012.8
20260906023048 62 0 0.0 0.0 0.00 0.00 0.00 92 1012.7
20260906022525 62 0 0.0 0.0 0.00 0.00 0.00 92 1012.7
20260906022028 62 0 0.0 0.0 0.00 0.00 0.00 92 1012.7
20260906021559 62 0 0.0 0.0 0.00 0.00 0.00 92 1012.7
20260906021023 62 0 0.0 1.0 0.00 0.00 0.00 91 1012.6
20260906020525 62 0 0.0 1.0 0.00 0.00 0.00 91 1012.7
20260906020053 63 0 0.0 1.0 0.00 0.00 0.00 90 1012.7
20260906015524 63 0 0.0 1.0 0.00 0.00 0.00 90 1012.8
20260906015027 63 10 0.0 4.0 0.00 0.00 0.00 90 1012.9
20260906014548 63 0 0.0 4.0 0.00 0.00 0.00 89 1012.9
20260906014027 63 334 1.0 4.0 0.00 0.00 0.00 89 1013.0
20260906013524 63 345 0.0 2.0 0.00 0.00 0.00 89 1013.0
20260906013047 62 0 0.0 2.0 0.00 0.00 0.00 89 1013.0
20260906012527 62 0 0.0 0.0 0.00 0.00 0.00 88 1012.9
20260906012029 63 0 0.0 1.0 0.00 0.00 0.00 88 1012.8
20260906011602 63 0 0.0 1.0 0.00 0.00 0.00 87 1012.9
20260906011024 63 0 0.0 1.0 0.00 0.00 0.00 87 1012.9
20260906010525 63 0 0.0 1.0 0.00 0.00 0.00 86 1012.8
20260906010046 63 0 0.0 0.0 0.00 0.00 0.00 87 1012.7
20260906005525 63 0 0.0 0.0 0.00 0.00 0.00 86 1012.5
20260906005027 63 0 0.0 0.0 0.00 0.00 0.00 86 1012.5
20260906004552 63 0 0.0 0.0 0.00 0.00 0.00 85 1012.4
20260906004027 63 0 0.0 0.0 0.00 0.00 0.00 83 1012.5
20260906003525 64 0 0.0 0.0 0.00 0.00 0.00 83 1012.5
20260906003049 64 0 0.0 0.0 0.00 0.00 0.00 83 1012.4
20260906002524 64 0 0.0 0.0 0.00 0.00 0.00 84 1012.4
20260906002025 64 0 0.0 0.0 0.00 0.00 0.00 84 1012.4
20260906001551 64 0 0.0 0.0 0.00 0.00 0.00 83 1012.4
20260906001027 64 0 0.0 0.0 0.00 0.00 0.00 83 1012.4
20260906000530 64 0 0.0 0.0 0.00 0.00 0.00 82 1012.3
20260906000045 64 0 0.0 0.0 0.00 0.00 0.00 82 1012.3
20260905235524 64 0 0.0 0.0 0.00 0.00 0.00 81 1012.2
20260905235026 64 0 0.0 1.0 0.00 0.00 0.00 81 1012.3
20260905234551 64 0 0.0 1.0 0.00 0.00 0.00 81 1012.2
20260905234028 64 0 0.0 1.0 0.00 0.00 0.00 81 1012.2
20260905233524 64 0 0.0 0.0 0.00 0.00 0.00 80 1012.2
20260905233103 65 0 0.0 0.0 0.00 0.00 0.00 79 1012.1
20260905232526 65 0 0.0 0.0 0.00 0.00 0.00 80 1012.1
20260905232025 65 0 0.0 1.0 0.00 0.00 0.00 79 1012.0
20260905231553 65 0 0.0 1.0 0.00 0.00 0.00 79 1011.9
20260905231024 65 0 0.0 2.0 0.00 0.00 0.00 78 1011.8
20260905230531 65 0 0.0 2.0 0.00 0.00 0.00 78 1011.9
20260905230051 65 0 0.0 1.0 0.00 0.00 0.00 78 1011.8
20260905225526 65 0 0.0 1.0 0.00 0.00 0.00 78 1011.8
20260905225026 65 136 0.0 1.0 0.00 0.00 0.00 79 1011.7
20260905224605 65 0 0.0 1.0 0.00 0.00 0.00 77 1011.7
20260905224025 65 0 0.0 2.0 0.00 0.00 0.00 77 1011.7
20260905223527 65 0 0.0 2.0 0.00 0.00 0.00 77 1011.6
20260905223041 65 257 0.0 2.0 0.00 0.00 0.00 77 1011.5
20260905222529 65 0 0.0 1.0 0.00 0.00 0.00 78 1011.5
20260905222031 65 0 0.0 2.0 0.00 0.00 0.00 78 1011.5
20260905221546 65 0 0.0 2.0 0.00 0.00 0.00 78 1011.6
20260905221028 65 0 0.0 2.0 0.00 0.00 0.00 78 1011.6
20260905220525 65 0 0.0 1.0 0.00 0.00 0.00 78 1011.7
20260905220050 65 96 0.0 2.0 0.00 0.00 0.00 78 1011.6
20260905215527 66 0 0.0 2.0 0.00 0.00 0.00 78 1011.5
20260905215024 66 89 0.0 2.0 0.00 0.00 0.00 78 1011.4
20260905214549 66 150 0.0 2.0 0.00 0.00 0.00 78 1011.2
20260905214027 66 285 0.0 3.0 0.00 0.00 0.00 79 1011.1
20260905213526 66 0 0.0 3.0 0.00 0.00 0.00 79 1011.1
20260905213048 66 124 0.0 4.0 0.00 0.00 0.00 79 1011.2
20260905212525 66 108 1.0 4.0 0.00 0.00 0.00 78 1011.1
20260905212029 66 103 0.0 6.0 0.00 0.00 0.00 77 1011.0
20260905211547 66 92 1.0 6.0 0.00 0.00 0.00 77 1011.0
20260905211025 67 34 1.0 7.0 0.00 0.00 0.00 78 1010.9
20260905210529 67 0 2.0 9.0 0.00 0.00 0.00 78 1010.9
20260905210053 67 84 2.0 9.0 0.00 0.00 0.00 77 1011.1
20260905205524 68 108 1.0 7.0 0.00 0.00 0.00 75 1011.0
20260905205029 68 217 2.0 6.0 0.00 0.00 0.00 75 1010.8
20260905204547 69 165 1.0 6.0 0.00 0.00 0.00 73 1010.7
20260905204025 69 120 2.0 6.0 0.00 0.00 0.00 72 1010.6
20260905203524 70 109 1.0 7.0 0.00 0.00 0.00 72 1010.4
20260905203047 70 294 1.0 7.0 0.00 0.00 0.00 72 1010.4
20260905202525 70 0 1.0 7.0 0.00 0.00 0.00 71 1010.3
20260905202024 71 80 1.0 6.0 0.00 0.00 0.00 70 1010.4
20260905201546 71 217 1.0 6.0 0.00 0.00 0.00 70 1010.2
20260905201024 71 187 1.0 5.0 0.00 0.00 0.00 71 1010.1
20260905200524 71 167 1.0 5.0 0.00 0.00 0.00 70 1010.0
20260905200049 71 96 0.0 5.0 0.00 0.00 0.00 71 1010.1
20260905195524 71 0 0.0 5.0 0.00 0.00 0.00 70 1010.1
20260905195028 71 135 1.0 3.0 0.00 0.00 0.00 70 1010.0
20260905194550 71 91 0.0 5.0 0.00 0.00 0.00 70 1010.0
20260905194025 72 91 1.0 5.0 0.00 0.00 0.00 70 1009.9
20260905193526 72 68 0.0 5.0 0.00 0.00 0.00 69 1009.9
20260905193046 72 102 0.0 2.0 0.00 0.00 0.00 73 1009.9
20260905192527 71 113 0.0 4.0 0.00 0.00 0.00 72 1009.9
20260905192026 71 63 1.0 4.0 0.00 0.00 0.00 72 1010.0
20260905191549 71 275 0.0 5.0 0.00 0.00 0.00 72 1010.0
20260905191026 71 0 1.0 5.0 0.00 0.00 0.00 74 1009.9
20260905190529 71 179 0.0 5.0 0.00 0.00 0.00 71 1009.9
20260905190115 71 80 0.0 2.0 0.00 0.00 0.00 72 1010.0
20260905185525 71 10 0.0 6.0 0.00 0.00 0.00 72 1010.0
20260905185024 72 82 1.0 6.0 0.00 0.00 0.00 71 1010.1
20260905184609 73 105 2.0 6.0 0.00 0.00 0.00 73 1010.1
20260905184027 72 150 0.0 6.0 0.00 0.00 0.00 72 1010.1
20260905183528 72 161 1.0 6.0 0.00 0.00 0.00 72 1010.0
20260905183058 72 26 2.0 6.0 0.00 0.00 0.00 72 1009.9
20260905182526 72 118 2.0 6.0 0.00 0.00 0.00 72 1010.0
20260905182025 71 101 1.0 5.0 0.00 0.00 0.00 72 1010.0
20260905181553 71 73 1.0 4.0 0.00 0.00 0.00 73 1010.0
20260905181025 70 0 0.0 5.0 0.00 0.00 0.00 75 1010.1
20260905180526 70 102 1.0 5.0 0.00 0.00 0.00 74 1010.1
20260905180050 70 116 1.0 6.0 0.00 0.00 0.00 73 1010.1
20260905175524 71 91 1.0 6.0 0.00 0.00 0.00 73 1010.1
20260905175025 72 304 2.0 5.0 0.00 0.00 0.00 70 1009.9
20260905174555 72 0 0.0 4.0 0.00 0.00 0.00 69 1009.8
20260905174024 73 1 1.0 6.0 0.00 0.00 0.00 68 1009.7
20260905173525 73 114 0.0 6.0 0.00 0.00 0.00 70 1009.7
20260905173051 72 355 0.0 5.0 0.00 0.00 0.00 71 1009.7
20260905172524 72 147 1.0 5.0 0.00 0.00 0.00 67 1009.6
20260905172026 72 0 1.0 5.0 0.00 0.00 0.00 71 1009.5
20260905171548 72 0 0.0 4.0 0.00 0.00 0.00 71 1009.5
20260905171026 71 100 1.0 5.0 0.00 0.00 0.00 70 1009.6
20260905170525 71 20 0.0 5.0 0.00 0.00 0.00 71 1009.6
20260905170045 71 104 0.0 4.0 0.00 0.00 0.00 72 1009.7
20260905165526 70 350 1.0 4.0 0.00 0.00 0.00 71 1009.7
20260905165024 71 0 0.0 4.0 0.00 0.00 0.00 71 1009.7
20260905164544 71 96 1.0 4.0 0.00 0.00 0.00 71 1009.7
20260905164025 71 0 1.0 4.0 0.00 0.00 0.00 70 1009.7
20260905163524 72 341 1.0 3.0 0.00 0.00 0.00 69 1009.6
20260905163050 72 93 0.0 3.0 0.00 0.00 0.00 71 1009.6
20260905162524 72 0 1.0 4.0 0.00 0.00 0.00 69 1009.7
20260905162025 72 331 0.0 4.0 0.00 0.00 0.00 69 1009.6
20260905161552 72 339 1.0 4.0 0.00 0.00 0.00 69 1009.7
20260905161025 72 9 1.0 4.0 0.00 0.00 0.00 69 1009.7
20260905160524 71 120 0.0 3.0 0.00 0.00 0.00 74 1009.7
20260905160058 70 75 1.0 4.0 0.00 0.00 0.00 74 1009.8
20260905155525 70 0 1.0 5.0 0.00 0.00 0.00 71 1009.8
20260905155028 70 305 1.0 5.0 0.00 0.00 0.00 72 1009.8
20260905154553 70 77 0.0 2.0 0.00 0.00 0.00 73 1009.8
20260905154027 71 51 0.0 4.0 0.00 0.00 0.00 73 1009.8
20260905153527 71 108 1.0 6.0 0.00 0.00 0.00 72 1009.9
20260905153046 71 24 1.0 7.0 0.00 0.00 0.00 71 1009.9
20260905152525 72 44 1.0 7.0 0.00 0.00 0.00 70 1009.8
20260905152025 72 332 2.0 7.0 0.00 0.00 0.00 70 1009.8
20260905151544 72 79 2.0 5.0 0.00 0.00 0.00 71 1009.8
20260905151028 71 274 1.0 5.0 0.00 0.00 0.00 75 1009.9
20260905150528 70 318 1.0 5.0 0.00 0.00 0.00 77 1009.8
20260905150053 70 30 1.0 5.0 0.00 0.00 0.00 76 1009.9
20260905145525 70 331 0.0 5.0 0.00 0.00 0.00 78 1009.8
20260905145027 69 0 1.0 6.0 0.00 0.00 0.00 77 1009.7
20260905144549 69 47 0.0 6.0 0.00 0.00 0.00 78 1009.9
20260905144025 68 347 2.0 6.0 0.00 0.00 0.00 77 1009.9
20260905143524 68 0 0.0 6.0 0.00 0.00 0.00 79 1009.9
20260905143046 68 345 2.0 6.0 0.00 0.00 0.00 79 1009.9
20260905142524 68 333 2.0 6.0 0.00 0.00 0.00 78 1009.8
20260905142025 69 352 2.0 6.0 0.00 0.00 0.00 76 1009.9
20260905141556 69 340 1.0 5.0 0.00 0.00 0.00 77 1009.8
20260905141026 69 0 1.0 3.0 0.00 0.00 0.00 77 1009.9
20260905140525 69 100 1.0 3.0 0.00 0.00 0.00 79 1009.9
20260905140050 69 33 1.0 6.0 0.00 0.00 0.00 78 1009.9
20260905135525 69 350 1.0 6.0 0.00 0.00 0.00 78 1009.9
20260905135024 69 48 1.0 5.0 0.00 0.00 0.00 79 1009.9
20260905134545 68 352 0.0 4.0 0.00 0.00 0.00 80 1009.9
20260905134025 68 335 1.0 5.0 0.00 0.00 0.00 80 1009.8
20260905133526 68 319 1.0 5.0 0.00 0.00 0.00 79 1009.7
20260905133050 68 78 1.0 6.0 0.00 0.00 0.00 81 1009.6
20260905132525 68 347 2.0 6.0 0.00 0.00 0.00 79 1009.6
20260905132027 68 340 1.0 5.0 0.00 0.00 0.00 80 1009.6
20260905131559 68 0 0.0 5.0 0.00 0.00 0.00 80 1009.6
20260905131025 68 3 1.0 4.0 0.00 0.00 0.00 79 1009.5
20260905130524 68 120 0.0 3.0 0.00 0.00 0.00 80 1009.4
20260905130045 68 0 1.0 3.0 0.00 0.00 0.00 80 1009.3
20260905125525 67 0 0.0 3.0 0.00 0.00 0.00 81 1009.4
20260905125025 67 20 1.0 3.0 0.00 0.00 0.00 80 1009.4
20260905124549 67 326 0.0 2.0 0.00 0.00 0.00 81 1009.4
20260905124025 67 347 0.0 6.0 0.00 0.00 0.00 83 1009.3
20260905123524 66 0 0.0 6.0 0.00 0.00 0.00 82 1009.2
20260905123059 66 360 1.0 11.0 0.00 0.00 0.00 82 1009.2
20260905122528 66 344 1.0 11.0 0.00 0.00 0.00 81 1009.2
20260905122025 66 40 0.0 6.0 0.00 0.00 0.00 83 1009.0
20260905121550 65 319 3.0 6.0 0.00 0.00 0.00 83 1009.1
20260905121024 65 321 1.0 5.0 0.00 0.00 0.00 83 1009.0
20260905120529 65 6 2.0 5.0 0.00 0.00 0.00 83 1009.0
20260905120050 65 0 0.0 5.0 0.00 0.00 0.00 83 1009.0